Temperature
20 21 21 22 22 20 20 19 19 19 19 19 19 18 19 19 20 20 20 20 20 20 19 19 19 18 18 17 17 17 16 16 16 16 16 15 15 15 15 15 14 14 14 14
21 21 21 21 21 21 20 20 19 19 19 19 18 19 19 19 19 19 19 19 19 19 19 19 19 18 18 17 17 17 16 16 16 16 15 15 15 15 15 14 14 14 14 14
19 20 21 21 21 20 20 20 19 19 19 18 17 18 18 19 19 19 19 19 19 19 19 19 18 18 18 17 17 16 16 16 16 15 15 15 15 15 15 14 14 14 14 14
17 20 21 20 20 20 20 20 19 19 18 18 18 18 19 19 20 20 19 19 19 19 19 18 18 17 17 17 17 16 16 16 15 15 15 15 15 14 14 14 14 14 13 13
16 19 20 20 20 20 20 20 19 18 17 17 18 18 18 19 20 20 20 19 19 19 19 18 18 17 17 17 16 16 16 15 15 15 15 15 14 14 14 14 13 13 13 13
16 19 20 20 21 21 20 20 19 18 17 17 18 17 17 19 19 19 19 19 19 18 18 17 17 17 17 16 16 16 15 15 15 15 14 14 14 14 13 13 13 13 13 13
16 18 18 19 20 21 20 20 20 19 18 18 18 18 19 19 19 19 19 19 18 18 17 17 17 16 16 16 15 15 15 15 14 14 14 14 14 13 13 13 13 13 13 13
15 17 18 19 19 19 19 20 20 20 20 19 19 19 19 19 19 19 18 18 18 17 17 17 16 16 16 15 15 15 14 14 14 14 14 14 13 13 13 13 13 13 12 12
15 17 18 19 19 21 21 21 21 21 20 20 19 19 19 19 19 18 18 18 17 17 17 16 16 16 15 15 15 14 14 14 14 14 13 13 13 13 12 12 12 12 12 12
14 16 17 19 20 21 21 21 21 21 20 20 19 19 19 19 18 18 18 17 17 17 16 16 16 15 15 15 14 14 14 14 13 13 13 13 13 12 12 12 12 12 12 12
15 15 17 19 20 21 21 21 20 20 20 20 19 19 19 18 18 18 17 17 16 16 16 16 15 15 15 14 14 14 13 13 13 13 13 12 12 12 12 12 12 12 12 11
15 17 16 18 20 20 20 20 20 20 19 19 19 19 18 18 18 17 17 17 16 16 16 15 15 15 15 14 14 14 13 13 13 13 12 12 12 12 12 12 11 11 11 11
18 19 18 19 19 19 20 20 20 20 20 19 19 19 18 18 17 17 17 16 16 16 15 15 15 14 14 14 13 13 13 13 12 12 12 12 11 11 11 11 11 11 11 11
18 18 18 19 19 19 19 19 19 19 19 19 18 18 18 18 17 17 16 16 16 15 15 15 14 14 14 13 13 13 13 12 12 12 12 11 11 11 11 11 11 11 11 10
18 18 18 18 18 18 18 18 18 18 18 18 18 18 18 17 17 17 16 16 15 15 15 14 14 14 13 13 13 12 12 12 12 11 11 11 11 11 11 10 10 10 10 10
18 18 18 18 18 18 17 18 18 18 18 18 17 17 17 17 17 16 16 15 15 15 14 14 14 13 13 13 12 12 12 11 11 11 11 11 11 10 10 10 10 10 10 10
17 17 17 17 17 17 17 17 18 18 18 17 17 17 17 16 16 16 15 15 14 14 14 13 13 13 12 12 12 12 11 11 11 11 11 10 10 10 10 10 10 10 10 9
18 18 18 18 18 17 17 17 17 17 17 17 17 16 16 16 16 15 15 14 14 14 13 13 13 12 12 12 12 11 11 11 11 10 10 10 10 10 10 9 9 9 9 9
18 18 18 17 17 17 17 17 17 17 17 16 16 16 16 15 15 15 14 14 14 13 13 13 12 12 12 12 11 11 11 11 10 10 10 10 10 9 9 9 9 9 9 9
17 17 17 17 17 17 17 17 17 16 16 16 16 15 15 15 15 14 14 14 14 13 13 12 12 12 12 11 11 11 11 10 10 10 10 9 9 9 9 9 9 9 8 8
17 17 17 17 17 17 17 16 16 16 16 15 15 15 15 14 14 14 14 14 13 13 12 12 12 12 11 11 11 10 10 10 10 9 9 9 9 9 9 8 8 8 8 8
16 16 16 16 16 16 16 16 16 15 15 15 15 15 14 14 14 13 13 13 13 12 12 12 11 11 11 11 10 10 10 9 9 9 9 9 9 8 8 8 8 8 8 8
15 15 15 16 16 15 15 15 15 15 15 15 14 14 14 13 13 13 13 13 12 12 12 11 11 11 10 10 10 10 9 9 9 9 9 8 8 8 8 8 7 7 7 7
15 15 15 15 15 15 15 15 15 14 14 14 14 14 13 13 13 13 13 12 12 11 11 11 11 10 10 10 10 9 9 9 9 8 8 8 8 8 7 7 7 7 7 7
14 14 14 14 14 14 14 14 14 14 14 13 13 13 13 13 13 13 12 12 11 11 11 11 10 10 10 10 9 9 9 9 8 8 8 8 8 8 7 7 7 7 7 7
13 13 14 14 13 13 13 13 13 13 13 13 13 13 13 12 12 12 12 11 11 11 10 10 10 10 10 9 9 9 9 9 8 8 8 8 7 7 7 7 7 7 7 6
13 13 13 13 13 13 13 13 13 13 13 13 13 13 12 12 12 12 11 11 11 10 10 10 10 10 10 9 9 9 9 8 8 8 8 7 7 7 7 7 7 7 6 6
Wind_Speed
4 4 3 3 3 5 5 7 7 7 7 9 7 6 5 4 4 4 4 4 5 4 3 3 3 2 2 2 1 2 2 1 1 1 0 1 1 1 1 1 1 1 2 2
1 1 2 2 2 3 4 3 4 3 6 5 2 3 4 5 5 5 5 5 4 4 3 3 3 3 3 2 2 2 2 1 1 0 1 1 1 1 1 2 2 2 1 2
2 3 2 3 4 5 4 4 6 6 7 2 3 5 6 6 6 6 5 4 4 4 4 3 3 3 3 3 2 2 2 1 0 0 0 1 1 1 1 1 1 1 2 2
2 2 3 7 4 4 4 3 4 4 3 4 5 4 2 3 5 5 5 4 3 3 3 2 2 3 3 2 2 2 1 1 1 1 1 1 1 1 1 1 0 1 2 2
4 3 4 6 3 3 4 3 2 4 3 3 5 4 2 1 3 5 5 4 4 3 3 3 3 3 4 2 2 1 1 1 1 1 1 1 1 2 2 1 1 1 1 2
4 4 6 7 4 2 4 3 3 4 5 5 6 3 4 2 3 3 3 3 4 4 4 3 2 3 4 2 1 1 1 1 1 1 2 2 2 2 1 1 1 2 2 2
4 4 7 6 3 2 3 7 4 5 6 7 6 5 4 4 4 4 4 4 5 5 4 2 2 4 3 2 2 2 1 1 1 1 2 3 2 1 1 1 1 1 2 3
4 3 7 3 3 5 7 3 3 5 5 6 5 4 4 5 5 5 5 4 5 4 2 1 2 3 2 2 2 1 1 0 1 1 2 1 1 1 1 1 1 2 2 3
7 7 5 4 5 4 3 3 4 5 4 6 5 4 4 4 5 5 5 4 4 4 2 1 1 3 2 2 1 1 1 0 1 2 2 1 1 1 1 1 1 2 2 3
3 6 5 5 4 2 2 3 3 4 6 7 6 5 5 5 5 4 3 4 3 4 3 2 2 2 3 2 1 2 1 1 1 1 2 2 1 1 1 1 2 2 2 3
3 6 5 5 3 2 1 2 3 3 4 7 8 6 5 5 5 4 3 3 4 4 3 2 2 1 1 1 2 2 1 0 1 1 1 2 2 1 2 3 3 3 3 3
6 6 4 6 5 2 3 3 4 4 4 4 6 7 6 5 4 4 4 3 3 3 3 2 1 1 1 1 2 2 1 1 1 1 1 1 2 3 3 3 4 4 4 3
6 5 5 6 5 3 4 4 3 4 6 6 5 6 6 5 4 4 4 4 4 4 3 2 2 1 2 1 2 3 3 3 2 2 2 1 1 2 3 4 4 3 3 3
4 2 3 3 4 2 2 2 3 3 3 4 5 5 5 5 4 4 5 5 4 3 3 2 2 2 2 2 2 2 3 3 3 2 2 2 2 2 2 3 4 4 4 4
3 2 4 3 1 0 2 3 4 4 3 3 4 5 6 6 5 4 3 3 3 2 1 2 2 3 2 1 2 2 2 2 2 2 2 2 2 2 2 3 3 4 4 4
2 2 0 1 1 2 3 3 3 3 3 3 3 4 5 5 4 3 3 4 4 3 3 2 3 3 1 1 1 1 2 3 2 1 2 2 2 2 2 2 3 3 3 4
1 1 1 1 2 3 3 4 4 4 4 4 4 4 5 5 4 3 3 3 3 3 3 3 3 2 1 1 2 1 1 2 2 1 1 1 2 2 3 3 3 3 3 3
6 6 6 5 5 4 4 3 4 4 3 4 4 5 5 5 5 4 4 3 2 0 1 2 2 1 1 1 1 1 1 1 1 1 1 1 2 2 2 2 2 3 3 3
3 3 3 4 4 5 4 4 4 3 3 4 5 5 4 4 4 4 4 4 3 2 3 1 1 1 1 1 2 1 2 1 1 1 1 1 1 1 1 2 2 3 3 3
1 1 1 2 2 4 4 4 4 4 4 5 5 5 3 3 3 4 4 3 3 3 2 1 2 1 1 1 2 1 1 1 1 1 0 0 1 1 1 2 2 3 3 3
1 1 2 2 2 2 3 4 5 4 3 5 6 5 4 3 3 3 3 2 1 0 1 2 1 1 1 1 2 1 1 1 1 1 1 1 1 1 1 2 2 3 3 3
0 0 1 2 2 1 1 2 4 5 5 4 4 4 4 3 3 2 1 2 1 1 2 1 1 2 2 2 1 2 2 1 1 1 1 1 1 1 2 2 3 3 3 3
1 0 1 3 3 2 2 2 3 5 5 6 6 5 5 4 3 3 1 1 1 2 2 2 2 3 4 2 1 1 2 1 1 1 1 1 2 2 2 3 3 3 4 4
1 0 1 2 3 3 2 1 2 2 3 4 4 5 5 3 2 1 1 2 2 3 2 2 3 4 3 2 1 1 1 2 1 1 2 2 2 2 2 3 3 4 4 5
0 1 2 3 3 2 2 2 2 2 3 2 2 2 3 3 3 2 2 2 3 3 1 1 2 3 2 1 1 1 1 2 2 1 1 2 2 2 3 3 3 4 4 4
1 0 1 1 1 1 2 2 2 2 2 2 1 1 1 1 2 2 2 2 3 2 1 1 2 2 2 2 1 2 2 2 2 2 2 2 3 3 3 4 4 4 4 5
1 1 0 1 0 1 2 2 3 3 3 3 2 2 2 2 2 2 2 2 2 2 2 2 2 2 2 2 2 2 2 2 2 2 2 2 3 3 4 4 4 4 4 5
Wind_Direction
221 240 215 220 209 175 179 188 193 226 220 244 239 211 191 171 161 157 171 178 184 188 188 180 171 169 165 163 148 138 131 133 222 271 350 12 17 23 36 41 33 29 18 7
299 287 228 259 276 191 199 190 208 227 252 251 221 147 156 168 168 175 186 191 191 184 172 172 175 174 165 162 158 139 140 186 236 43 38 3 341 18 31 27 25 32 8 359
247 299 44 284 248 202 194 196 179 212 237 191 170 177 184 185 180 178 179 183 179 178 175 176 177 170 170 179 155 137 152 184 27 65 360 312 316 16 360 7 32 10 345 341
151 72 223 243 256 196 184 226 214 231 237 190 183 164 158 178 178 174 172 169 165 158 156 155 155 158 154 144 143 150 159 202 229 206 252 282 341 324 311 307 323 318 328 325
130 177 267 288 253 184 172 265 221 193 171 136 122 85 357 251 167 170 169 166 160 150 143 137 144 150 137 132 140 148 196 234 237 219 232 264 284 279 279 299 313 320 326 318
131 158 224 246 260 196 117 288 241 173 164 151 121 138 245 207 145 134 129 131 130 120 112 119 134 134 134 148 153 202 237 246 242 211 219 240 254 261 273 279 283 307 328 327
152 199 252 254 261 115 160 240 221 179 175 165 175 196 188 151 141 139 136 132 128 124 129 144 141 135 146 167 213 230 228 227 254 240 230 234 248 258 289 301 322 328 332 334
146 184 252 259 140 180 216 224 171 186 184 171 166 147 140 142 142 141 135 132 132 132 138 141 134 135 157 221 236 214 166 208 274 285 271 258 249 280 287 282 328 326 332 332
190 214 246 241 222 245 195 189 196 185 180 157 150 157 152 146 146 148 147 148 143 141 143 139 149 156 192 244 238 115 111 264 298 318 323 312 252 261 285 279 285 302 309 313
258 271 272 272 264 264 210 216 199 171 159 154 155 159 156 149 147 148 150 150 140 135 153 201 223 204 212 232 185 146 162 279 314 337 339 339 315 264 247 264 270 278 284 290
263 280 308 309 275 240 195 155 134 141 154 159 149 154 159 157 159 159 156 151 147 159 180 213 214 233 245 208 155 153 173 255 331 336 328 326 316 291 264 257 245 245 255 258
232 236 222 259 267 223 181 195 175 156 151 153 153 157 154 155 160 156 158 162 160 166 183 212 211 239 256 220 167 166 198 238 242 258 291 303 319 328 325 281 283 253 236 238
236 251 238 259 268 239 207 205 197 168 158 155 153 150 149 149 155 153 154 162 175 186 195 199 206 242 257 228 182 186 207 227 237 242 257 272 284 298 312 325 321 297 282 271
240 229 269 266 263 255 171 142 127 116 123 141 147 144 143 140 144 159 174 181 178 174 185 190 197 247 259 222 205 220 224 228 228 231 238 245 252 260 264 280 304 312 308 294
272 233 234 252 273 102 123 120 120 125 129 130 139 149 150 150 163 182 180 160 141 142 174 183 210 258 265 203 197 213 225 236 233 230 238 245 251 255 261 264 274 290 305 314
302 337 207 174 164 147 138 135 142 162 159 154 154 161 160 155 154 151 147 147 149 176 205 206 232 253 240 199 200 225 239 244 242 231 243 252 254 255 261 266 272 279 285 291
164 250 236 222 203 186 178 178 178 186 180 171 175 164 151 143 141 158 175 174 171 190 205 210 230 245 217 191 191 223 239 259 259 234 241 250 254 263 267 264 267 277 283 288
222 217 209 198 194 194 199 190 182 182 193 185 155 150 160 167 179 189 186 161 136 82 279 249 232 204 196 207 203 205 200 211 208 215 233 250 266 274 274 272 277 286 298 309
238 219 205 201 197 185 190 193 188 180 171 160 152 156 169 174 175 176 162 150 164 227 263 266 224 187 191 208 181 177 177 190 221 254 252 257 275 293 287 281 283 287 292 301
230 214 178 181 184 173 176 180 169 156 159 153 144 140 150 169 166 160 155 173 211 219 222 208 173 190 228 215 180 170 176 182 200 248 280 263 275 290 293 294 299 303 302 298
214 192 170 172 183 171 162 158 153 155 156 151 151 156 158 155 148 150 153 187 271 237 158 164 161 185 197 186 178 179 182 176 181 200 220 243 267 288 297 302 302 301 304 303
308 183 171 153 151 152 139 142 152 155 155 152 146 143 140 141 140 131 162 191 201 170 158 175 183 179 168 150 145 164 173 180 196 213 232 248 257 268 280 290 294 298 298 296
346 41 139 145 151 148 99 122 153 156 159 162 162 162 159 162 163 152 189 230 155 147 154 183 178 158 151 143 154 170 176 186 204 226 242 249 257 263 273 281 285 290 294 295
15 52 99 116 116 116 126 164 149 146 153 156 160 160 156 155 175 202 178 154 136 136 144 169 166 164 153 153 165 177 194 211 220 235 251 262 273 280 283 289 295 298 297 297
83 106 113 110 119 152 182 176 143 129 133 137 145 155 163 167 172 176 150 142 144 139 147 161 164 168 164 171 182 193 216 233 237 238 253 273 281 282 286 288 288 290 294 294
15 49 168 164 176 191 190 166 160 169 161 160 191 196 161 138 139 143 143 156 164 171 186 196 193 189 192 195 213 231 241 246 247 251 260 271 282 285 286 285 285 286 287 287
348 352 31 33 342 186 176 172 177 195 192 188 199 200 183 168 162 167 170 182 188 201 215 218 210 210 213 218 245 257 254 249 247 254 263 273 277 279 281 282 283 281 280 283
Height
1509 1506 1506 1506 1507 1510 1513 1516 1522 1517 1515 1505 1501 1500 1501 1502 1504 1506 1508 1509 1511 1512 1513 1515 1515 1516 1516 1517 1517 1517 1517 1516 1516 1516 1515 1515 1514 1514 1513 1513 1512 1512 1511 1511
1509 1505 1505 1507 1505 1506 1507 1509 1511 1510 1509 1499 1499 1499 1501 1502 1503 1505 1507 1508 1510 1511 1512 1514 1515 1515 1516 1516 1516 1516 1516 1516 1515 1515 1514 1514 1513 1513 1512 1511 1511 1510 1509 1509
1518 1510 1507 1515 1506 1504 1504 1503 1505 1508 1502 1498 1499 1499 1499 1500 1502 1503 1506 1508 1509 1510 1512 1513 1514 1515 1515 1515 1516 1516 1515 1515 1515 1514 1513 1512 1512 1512 1511 1510 1510 1509 1508 1507
1521 1515 1522 1510 1497 1496 1498 1498 1498 1497 1496 1496 1497 1498 1499 1500 1501 1503 1505 1507 1508 1510 1511 1513 1514 1515 1515 1515 1515 1515 1514 1514 1514 1513 1512 1512 1511 1511 1510 1509 1508 1508 1507 1506
1525 1524 1517 1504 1496 1495 1498 1499 1495 1495 1495 1496 1497 1499 1500 1500 1501 1503 1505 1507 1508 1509 1511 1512 1513 1514 1514 1514 1514 1514 1514 1513 1513 1512 1512 1511 1510 1509 1509 1508 1507 1507 1506 1505
1522 1521 1522 1505 1492 1491 1494 1501 1492 1492 1493 1494 1496 1503 1501 1499 1501 1503 1505 1507 1508 1509 1510 1511 1512 1513 1513 1513 1513 1513 1512 1512 1512 1511 1511 1510 1509 1509 1508 1507 1507 1506 1505 1504
1519 1518 1511 1494 1490 1491 1505 1501 1489 1490 1491 1492 1494 1496 1497 1498 1500 1502 1504 1506 1507 1508 1509 1510 1511 1511 1512 1512 1512 1512 1511 1511 1511 1510 1510 1509 1508 1508 1507 1506 1505 1504 1503 1502
1519 1518 1512 1490 1490 1493 1492 1486 1487 1488 1489 1490 1492 1494 1496 1498 1499 1502 1504 1505 1507 1508 1509 1510 1510 1510 1510 1510 1510 1510 1510 1510 1509 1509 1508 1507 1506 1506 1505 1504 1503 1503 1501 1500
1506 1504 1491 1488 1487 1486 1486 1485 1486 1487 1488 1489 1491 1494 1495 1497 1499 1501 1503 1504 1506 1507 1508 1508 1509 1509 1509 1509 1508 1508 1508 1508 1507 1507 1506 1505 1504 1504 1503 1503 1502 1500 1499 1498
1499 1492 1488 1486 1485 1484 1485 1485 1485 1486 1487 1489 1490 1493 1495 1497 1499 1501 1502 1503 1505 1506 1507 1507 1508 1508 1508 1508 1507 1507 1506 1506 1505 1504 1504 1503 1502 1502 1501 1500 1499 1498 1497 1496
1496 1490 1486 1484 1484 1483 1483 1484 1485 1486 1487 1488 1490 1492 1494 1495 1497 1499 1501 1502 1504 1505 1506 1506 1506 1506 1506 1506 1505 1504 1504 1504 1503 1502 1502 1501 1501 1500 1499 1498 1498 1496 1495 1494
1493 1486 1486 1484 1483 1483 1483 1483 1483 1485 1486 1488 1489 1491 1493 1494 1496 1498 1500 1501 1502 1503 1504 1504 1504 1504 1504 1503 1503 1502 1502 1501 1501 1500 1500 1499 1498 1498 1497 1497 1496 1494 1493 1492
1484 1483 1483 1482 1481 1481 1481 1481 1482 1483 1484 1486 1488 1490 1492 1493 1495 1497 1498 1499 1500 1501 1502 1502 1502 1501 1501 1501 1501 1500 1500 1499 1499 1498 1498 1497 1496 1495 1494 1494 1493 1492 1491 1490
1482 1482 1481 1480 1480 1480 1480 1480 1482 1483 1484 1486 1488 1489 1491 1492 1494 1495 1496 1497 1498 1499 1500 1499 1499 1499 1499 1499 1498 1498 1497 1497 1497 1496 1496 1495 1494 1493 1492 1490 1489 1489 1488 1488
1479 1479 1479 1479 1479 1479 1479 1480 1481 1482 1483 1485 1487 1488 1489 1491 1492 1494 1495 1496 1497 1497 1497 1497 1497 1497 1497 1496 1496 1495 1495 1494 1494 1493 1493 1492 1491 1490 1489 1488 1487 1486 1485 1485
1477 1477 1477 1477 1477 1477 1478 1479 1480 1481 1482 1484 1486 1487 1489 1490 1492 1493 1494 1494 1494 1495 1495 1495 1495 1495 1494 1494 1493 1492 1492 1491 1491 1490 1490 1489 1488 1487 1486 1485 1484 1483 1482 1481
1476 1476 1476 1476 1476 1476 1477 1478 1479 1480 1481 1483 1484 1486 1488 1489 1490 1491 1492 1492 1493 1493 1493 1493 1493 1492 1492 1492 1491 1490 1489 1488 1487 1487 1487 1486 1485 1484 1484 1483 1481 1480 1480 1479
1474 1474 1475 1475 1474 1475 1476 1477 1478 1479 1480 1481 1483 1485 1486 1487 1488 1489 1489 1490 1490 1491 1491 1490 1490 1490 1489 1489 1489 1488 1487 1486 1485 1484 1484 1483 1483 1482 1481 1480 1479 1478 1477 1476
1472 1472 1473 1473 1474 1474 1475 1476 1477 1478 1479 1480 1481 1482 1484 1485 1486 1487 1487 1487 1487 1487 1488 1487 1488 1488 1487 1487 1486 1486 1485 1484 1483 1482 1482 1481 1480 1480 1479 1478 1477 1476 1475 1474
1470 1470 1471 1472 1472 1473 1473 1474 1475 1476 1478 1479 1480 1480 1482 1483 1484 1484 1484 1485 1485 1485 1485 1485 1484 1485 1485 1485 1484 1483 1483 1482 1481 1480 1480 1479 1478 1477 1477 1476 1475 1474 1472 1471
1468 1469 1469 1470 1471 1472 1472 1473 1474 1475 1476 1478 1478 1479 1480 1481 1482 1482 1482 1482 1483 1484 1483 1483 1483 1482 1482 1482 1482 1481 1481 1480 1479 1479 1478 1477 1476 1475 1474 1473 1472 1471 1470 1468
1467 1467 1468 1469 1470 1470 1471 1472 1473 1474 1475 1476 1477 1478 1479 1479 1480 1480 1481 1481 1481 1481 1481 1481 1481 1480 1480 1480 1479 1479 1479 1478 1477 1477 1476 1475 1474 1473 1472 1471 1470 1468 1467 1466
1466 1467 1467 1467 1469 1470 1470 1471 1472 1473 1474 1474 1475 1476 1477 1478 1479 1479 1479 1479 1479 1480 1479 1479 1479 1479 1479 1478 1478 1477 1477 1476 1476 1475 1474 1473 1472 1471 1470 1468 1467 1466 1464 1463
1466 1466 1466 1467 1468 1469 1470 1471 1471 1472 1473 1474 1474 1475 1476 1477 1477 1478 1478 1478 1478 1478 1478 1478 1478 1478 1477 1477 1476 1475 1475 1474 1474 1473 1472 1471 1470 1469 1467 1466 1464 1463 1461 1460
1466 1466 1466 1466 1467 1468 1469 1470 1470 1471 1472 1473 1474 1475 1476 1476 1477 1477 1477 1477 1477 1477 1477 1477 1477 1477 1476 1476 1475 1474 1473 1472 1472 1471 1470 1469 1467 1466 1465 1463 1462 1460 1458 1457
1466 1466 1466 1466 1467 1467 1468 1469 1469 1470 1471 1472 1473 1474 1475 1475 1476 1476 1476 1476 1476 1476 1476 1476 1476 1475 1475 1474 1474 1473 1472 1471 1470 1469 1467 1466 1465 1463 1462 1460 1459 1457 1455 1453
1466 1465 1465 1466 1466 1467 1467 1468 1468 1469 1470 1471 1471 1472 1473 1474 1474 1474 1475 1475 1474 1475 1475 1474 1474 1474 1473 1472 1472 1471 1470 1469 1468 1466 1465 1464 1462 1461 1459 1458 1456 1454 1452 1450